SL-12 R/B(AUX MOTOR), 37144

Orbit data source: Space-Track

SL-12 R/B(AUX MOTOR), 37144 is space debris in HEO originally from a launch on Thu, 02 Sep 2010 UTC launched from the Tyuratam Missile And Space Complex (TTMTR). Debris objects in space refer to the collection of defunct objects orbiting the Earth. Examples of debris include non-operational satellites, rocket bodies, and fragments generated from explosions, collisions, or faulty payload assembly.

Loading next visibility...
Identifier
37144, 2010-041H
Orbit
HEO
Country
Flag of CISCIS
Related business
Manufacturer
RKKE
Mission
Spacecraft
Bus & Motor
SOZ, Unknown motor
Mass
56 kg wet, 56 kg dry
Launch date (UTC)
2010-09-02 (16 years ago)
Launch vehicle
Unknown
Launch site
Tyuratam Missile And Space Complex (TTMTR)
Object type
Payload
Rocket body
Debris
Shape & HBR
Cyl, 0.6 m
Radar Cross Section
0.660 m², Medium (>0.1 m² and < 1m²)

Expand to show TLE details & history
Last TLE update: 19 hours ago

TLE from 19 hours ago
0 SL-12 R/B(AUX MOTOR)
1 37144U 10041H   26264.72032799 -.00000015  00000-0 -69805-4 0  9994
2 37144  64.9335  57.9409 5613708 304.4632  14.5441  4.24864334109420
Epoch: 2026-09-21T17:17Z
TLE epoch observation values (Epoch: 2026-09-21T17:17:16.338Z)
Latitude
0.00011°
Longitude
158.01977°
Altitude
1,993.627 km
Speed
8.396 km/s
True Right ascension
03h 51m 44s
True Declination
0° 00' 00"
Sunlit
Object was in daylight at epoch
Visualization orbit readout
Latitude
Unknown
Longitude
Unknown
Altitude
Unknown
Speed
Unknown
Apparent Right ascension
Unknown
Apparent Declination
Unknown
Sunlit
N/A
Visualization observer readout
Local Sidereal Time
05:51:43
Azimuth
Unknown
Elevation
Unknown
Doppler factor
Unknown
Orbital elements
Apogee altitude
18,762.597 km
Perigee altitude
684.541 km
Semi-major axis
16,101.706 km
Eccentricity
0.56137
Inclination
64.9335°
RAAN
57.9409°
Arg. of periapsis
304.4632°
True anomaly
55.57695°
Mean anomaly
14.5441°
Eccentric anomaly
31.21157°
Mean motion
1.06227 °/min
Orbital period
338.9 mins
BSTAR
-0.000069805
Loading maneuver chart data...
Computing Atmospheric mass density...
Loading historical data...
Loading historical data...
Loading historical data...
Loading historical data...
Loading historical data...
Loading historical data...
Loading historical data...

Documentation

Showing up to 5 results
|